This demonstration page uses our WeatherBlox Daily Observations layout. Learn more.

Left ArrowRight Arrow

Hourly Observations for January 28, 2018

Temp ( °F °C ) Dew Point ( °F °C ) Humidity (%) Winds ( mph kmh ) Pressure ( in mb ) Visibility ( mi km ) Precip ( " mm )
12:53 am 00:53 Clear 28 -2.2 12 -11.1 51 51 N 7 11 30.32 1027 10 16 0.00 0.00
1:53 am 01:53 Clear 27 -2.8 11 -11.7 51 51 WNW 3 6 30.32 1027 10 16 0.00 0.00
2:53 am 02:53 Clear 25 -3.9 10 -12.2 53 53 NNW 3 6 30.32 1027 10 16 0.00 0.00
3:53 am 03:53 Clear 22 -5.6 9 -12.8 57 57 N 6 9 30.31 1026 10 16 0.00 0.00
4:53 am 04:53 Clear 21 -6.1 9 -12.8 59 59 N 6 9 30.31 1026 10 16 0.00 0.00
5:53 am 05:53 Clear 21 -6.1 10 -12.2 62 62 N 7 11 30.30 1026 10 16 0.00 0.00
6:53 am 06:53 Clear 20 -6.7 9 -12.8 62 62 N 7 11 30.34 1027 10 16 0.00 0.00
7:53 am 07:53 Sunny 20 -6.7 9 -12.8 62 62 N 6 9 30.35 1028 10 16 0.00 0.00
8:53 am 08:53 Sunny 29 -1.7 11 -11.7 47 47 NNW 3 6 30.36 1028 10 16 0.00 0.00
9:53 am 09:53 Sunny 41 5 14 -10 33 33 Calm 30.35 1028 10 16 0.00 0.00
10:53 am 10:53 Sunny 50 10 18 -7.8 28 28 S 5 7 30.35 1028 10 16 0.00 0.00
11:53 am 11:53 Sunny 54 12.2 20 -6.7 26 26 undefined N/A 30.34 1027 10 16 0.00 0.00
12:53 pm 12:53 Sunny 58 14.4 22 -5.6 25 25 VRB 5 7 30.30 1026 10 16 0.00 0.00
1:53 pm 13:53 Sunny 60 15.6 22 -5.6 23 23 Calm 30.26 1025 10 16 0.00 0.00
2:53 pm 14:53 Sunny 62 16.7 21 -6.1 21 21 Calm 30.23 1024 10 16 0.00 0.00
3:53 pm 15:53 Sunny 63 17.2 20 -6.7 19 19 SSW 5 7 30.22 1024 10 16 0.00 0.00
4:53 pm 16:53 Sunny 64 17.8 20 -6.7 18 18 SSE 7 11 30.23 1024 10 16 0.00 0.00
5:53 pm 17:53 Sunny 61 16.1 21 -6.1 21 21 S 6 9 30.24 1024 10 16 0.00 0.00
6:53 pm 18:53 Clear 54 12.2 21 -6.1 28 28 SSE 6 9 30.27 1025 10 16 0.00 0.00
7:53 pm 19:53 Clear 49 9.4 20 -6.7 32 32 ESE 7 11 30.32 1027 10 16 0.00 0.00
8:53 pm 20:53 Clear 47 8.3 21 -6.1 36 36 ESE 6 9 30.32 1027 10 16 0.00 0.00
9:53 pm 21:53 Clear 44 6.7 20 -6.7 38 38 ESE 5 7 30.33 1027 10 16 0.00 0.00
10:53 pm 22:53 Clear 40 4.4 18 -7.8 41 41 ENE 6 9 30.35 1028 10 16 0.00 0.00
11:53 pm 23:53 Clear 34 1.1 16 -8.9 48 48 N 6 9 30.38 1029 10 16 0.00 0.00

Powered by AerisWeather